Weather Roundup
Issued by NWS Springfield, MO

Home | Current Version | Previous Version | Text Only | Print | Product List | Glossary On
Versions: 1 2 3 4 5 6 7 8 9 10 11 12 13 14 15 16 17 18 19 20 21 22 23 24 25 26 27 28 29 30 31 32 33 34 35 36 37 38 39 40 41 42 43 44 45 46 47 48 49 50
000
NZUS99 KSGF 302007
HRRSGF

HOURLY WEATHER
NATIONAL WEATHER SERVICE SPRINGFIELD MO
300 PM CDT THU MAR 30 2017

......SGF CWA......

CITY           SKY/WX    TMP DP  RH WIND       PRES   REMARKS
SPRINGFIELD    LGT RAIN  47  44  90 SW13      29.62R FOG
JOPLIN         LGT RAIN  48  47  96 W17       29.63R FOG
WEST PLAINS    CLOUDY    53  41  63 W20G25    29.62S
ROLLA          CLOUDY    53  44  71 W15       29.57S
BRANSON        LGT RAIN  46  45  93 SW13G18   29.66S FOG

......SURROUNDING SGF CWA......

CITY           SKY/WX    TMP DP  RH WIND       PRES   REMARKS
CHANUTE        CLOUDY    48  44  86 NW21G28   29.64R
PARSONS        CLOUDY    50  44  80 NW20G26   29.67R
COFFEYVILLE    CLOUDY    49  44  83 W16       29.68R
EMPORIA        CLOUDY    45  43  93 NW17      29.66R
GROVE OK       CLOUDY    46  46 100 W15       29.70R FOG
ROGERS AR      LGT RAIN  45  43  93 W12G20    29.68S
SILOAM SPRINGS CLOUDY    46  39  76 W15G21    29.69S
HARRISON AR    CLOUDY    49  41  74 W14G21    29.66S
NEAR YELLVILLE CLOUDY    54  37  54 SW16G23   29.64R

......KANSAS AND MISSOURI......

CITY           SKY/WX    TMP DP  RH WIND       PRES   REMARKS
KANSAS CTY INT DRIZZLE   49  47  93 N10       29.59R
DOWNTOWN KC    CLOUDY    54  48  80 N7        29.58S
COLUMBIA       CLOUDY    54  45  71 W12       29.58R
SEDALIA        CLOUDY    52  47  83 SW6       29.59R
ST JOSEPH      CLOUDY    47  46  97 N15       29.62R
ST LOUIS       CLOUDY    62  55  77 NW14      29.53S
SPIRIT OF STL  CLOUDY    60  54  80 W13       29.53F
KIRKSVILLE     LGT RAIN  49  48  97 N8        29.57S
WICHITA        CLOUDY    46  41  82 NW20G26   29.72S
TOPEKA         CLOUDY    47  45  93 N15       29.64R
OLATHE         CLOUDY    52  49  89 N8        29.58S

......TENNESSEE......

CITY           SKY/WX    TMP DP  RH WIND       PRES   REMARKS
MEMPHIS        CLOUDY    72  58  61 SW20G36   29.63F
NASHVILLE      CLOUDY    78  55  44 S17G33    29.67F

......ARKANSAS.......

CITY           SKY/WX    TMP DP  RH WIND       PRES   REMARKS
FAYETTEVILLE   CLOUDY    46  44  93 SW15G25   29.70R
FT SMITH       CLOUDY    54  41  61 W16       29.72F
LITTLE ROCK    PTSUNNY   61  44  53 SW20G31   29.71F

......OKLAHOMA.......

CITY           SKY/WX    TMP DP  RH WIND       PRES   REMARKS
TULSA          CLOUDY    51  42  71 W21G26    29.72R
PONCA CITY     CLOUDY    50  40  68 NW12G23   29.74R
MCALESTER      CLOUDY    59  42  53 W10       29.75S
OKLAHOMA CITY  MOSUNNY   59  43  55 NW17G24   29.75F

......IOWA............

CITY           SKY/WX    TMP DP  RH WIND       PRES   REMARKS
DES MOINES     CLOUDY    45  42  89 N14       29.63F
QUAD CITIES    CLOUDY    45  41  86 NE12      29.58F FOG

......ILLINOIS........

CITY           SKY/WX    TMP DP  RH WIND       PRES   REMARKS
QUINCY         LGT RAIN  53  52  96 NW8       29.53S
CHICAGO        LGT RAIN  43  40  89 NE17G24   29.58F



USA.gov is the U.S. government's official web portal to all federal, state and local government web resources and services.